Погода в Монтерии

Колумбия     8°45′18″N   75°52′35″W
темп.,
°C
ветер,
м/с
пор.,
м/с
влажн.,
%
обл.,
%
осадки,
мм/ч
давл.,
гПа
погр.,
м
4 августа, ср
ср401:00+23юз2292100 2.8 101228
04:00+23ююз1191100 0.0 101211
07:00+24ю119181 0.0 101355
10:00+26юв228387 0.0 1014357
13:00+29в3473100 0.0 10121106
16:00+29в1272100 0.0 1009850
19:00+26сз2281100 0.0 101115
22:00+24сз239162 0.1 101365
5 августа, чт
чт501:00+24ссз119127 0.2 101213
04:00+23св2295100 2.8 101244
07:00+24юз2295100 3.4 101383
10:00+27ююв228253 0.0 1013564
13:00+30в12669 0.0 10111154
16:00+29сз337785 0.1 1009315
19:00+25зсз369027 0.1 1011145
22:00+23зсз349166 1.5 101382
6 августа, пт
пт601:00+23з349274 1.6 101284
04:00+23ю1293100 1.6 101228
07:00+23з1295100 3.3 101358
10:00+25юз2388100 0.1 1013301
13:00+28зюз127767 0.1 1011606
16:00+29сз22725 0.0 1009905
19:00+25зсз359118 0.0 101191
22:00+24зсз3688100 0.0 1012123
7 августа, сб
сб701:00+24з379087 0.0 1012159
04:00+23з3592100 0.5 101193
07:00+24юз259399 0.8 1013185
10:00+26ю2385100 0.0 1014523
13:00+30зсз116980 0.1 10111162
16:00+29сз337765 0.7 1009457
19:00+25зсз369252 2.4 1011118
22:00+24зсз239377 0.9 101353
8 августа, вс
вс801:00+23з239398 1.7 101266
04:00+23зюз2294100 0.3 101138
07:00+23ю1294100 2.7 101341
10:00+25юз2288100 0.0 1013303
13:00+28ю1176100 0.2 1012901
16:00+29с227580 0.5 1010822
19:00+25сз349126 1.0 101285
22:00+24зсз2391100 0.0 101340